2022/12/27 00:00:00,26.0, 0.8
2022/12/27 00:10:00,25.9, 0.9
2022/12/27 00:20:00,25.9, 0.8
2022/12/27 00:30:00,25.8, 0.7
2022/12/27 00:40:00,25.8, 0.8
2022/12/27 00:50:00,25.7, 0.9
2022/12/27 01:00:00,25.8, 0.9
2022/12/27 01:10:00,25.8, 0.9
2022/12/27 01:20:00,25.8, 0.8
2022/12/27 01:30:00,25.8, 0.9
2022/12/27 01:40:00,25.7, 1.2
2022/12/27 01:50:00,25.7, 1.1
2022/12/27 02:00:00,25.6, 1.0
2022/12/27 02:10:00,25.5, 0.9
2022/12/27 02:20:00,25.5, 1.0
2022/12/27 02:30:00,25.5, 1.1
2022/12/27 02:40:00,25.5, 0.8
2022/12/27 02:50:00,25.4, 1.0
2022/12/27 03:00:00,25.4, 0.9
2022/12/27 03:10:00,25.4, 0.4
2022/12/27 03:20:00,25.4, 0.9
2022/12/27 03:30:00,25.4, 0.6
2022/12/27 03:40:00,25.4, 0.6
2022/12/27 03:50:00,25.4, 0.7
2022/12/27 04:00:00,25.5, 0.9
2022/12/27 04:10:00,25.4, 0.7
2022/12/27 04:20:00,25.5, 1.3
2022/12/27 04:30:00,25.4, 1.0
2022/12/27 04:40:00,25.4, 1.0
2022/12/27 04:50:00,25.4, 0.8
2022/12/27 05:00:00,25.4, 0.9
2022/12/27 05:10:00,25.4, 0.8
2022/12/27 05:20:00,25.4, 0.8
2022/12/27 05:30:00,25.4, 0.8
2022/12/27 05:40:00,25.5, 0.9
2022/12/27 05:50:00,25.4, 1.2
2022/12/27 06:00:00,25.5, 0.9
2022/12/27 06:10:00,25.6, 1.0
2022/12/27 06:20:00,25.5, 1.2
2022/12/27 06:30:00,25.5, 1.1
2022/12/27 06:40:00,25.4, 1.0
2022/12/27 06:50:00,25.4, 0.7
2022/12/27 07:00:00,25.4, 0.6
2022/12/27 07:10:00,25.4, 0.8
2022/12/27 07:20:00,25.4, 0.9
2022/12/27 07:30:00,25.4, 1.0
2022/12/27 07:40:00,25.3, 1.4
2022/12/27 07:50:00,25.3, 1.1
2022/12/27 08:00:00,25.3, 1.3
2022/12/27 08:10:00,25.3, 1.4
2022/12/27 08:20:00,25.3, 1.4
2022/12/27 08:30:00,25.3, 2.5
2022/12/27 08:40:00,25.2, 1.9
2022/12/27 08:50:00,25.2, 1.9
2022/12/27 09:00:00,25.2, 2.5
2022/12/27 09:10:00,25.2, 3.4
2022/12/27 09:20:00,25.2, 3.4
2022/12/27 09:30:00,25.1, 3.6
2022/12/27 09:40:00,25.2, 3.2
2022/12/27 09:50:00,25.1, 3.8
2022/12/27 10:00:00,25.2, 3.4
2022/12/27 10:10:00,25.0, 4.2
2022/12/27 10:20:00,24.9, 6.7
2022/12/27 10:30:00,25.0, 8.7
2022/12/27 10:40:00,25.2, 7.0
2022/12/27 10:50:00,25.1, 6.4
2022/12/27 11:00:00,25.1, 5.5
2022/12/27 11:10:00,25.1, 7.2
2022/12/27 11:20:00,25.0, 9.4
2022/12/27 11:30:00,24.9,10.6
2022/12/27 11:40:00,25.0,10.9
2022/12/27 11:50:00,24.9, 7.3
2022/12/27 12:00:00,24.8, 5.8
2022/12/27 12:10:00,24.9, 5.9
2022/12/27 12:20:00,24.9, 8.0
2022/12/27 12:30:00,24.8, 6.9
2022/12/27 12:40:00,24.8, 5.6
2022/12/27 12:50:00,24.8, 5.7
2022/12/27 13:00:00,24.7, 6.6
2022/12/27 13:10:00,24.5, 5.9
2022/12/27 13:20:00,24.5, 5.8
2022/12/27 13:30:00,24.6, 4.7
2022/12/27 13:40:00,24.6, 5.2
2022/12/27 13:50:00,24.4, 5.3
2022/12/27 14:00:00,24.4, 5.5
2022/12/27 14:10:00,24.4, 6.2
2022/12/27 14:20:00,24.3, 6.8
2022/12/27 14:30:00,24.1, 9.5
2022/12/27 14:40:00,24.0,15.5
2022/12/27 14:50:00,24.1,17.7
2022/12/27 15:00:00,24.0,16.4
2022/12/27 15:10:00,23.9, 7.5
2022/12/27 15:20:00,23.8, 6.9
2022/12/27 15:30:00,23.8, 7.7
2022/12/27 15:40:00,23.8, 6.0
2022/12/27 15:50:00,23.8, 5.7
2022/12/27 16:00:00,23.7, 9.8
2022/12/27 16:10:00,23.7,12.8
2022/12/27 16:20:00,23.6,13.0
2022/12/27 16:30:00,23.5, 6.5
2022/12/27 16:40:00,23.5, 3.7
2022/12/27 16:50:00,23.6, 1.9
2022/12/27 17:00:00,23.7, 0.9
2022/12/27 17:10:00,23.7, 0.1
2022/12/27 17:20:00,23.7,-0.4
2022/12/27 17:30:00,23.7,-0.6
2022/12/27 17:40:00,23.6, 0.0
2022/12/27 17:50:00,23.6,-0.2
2022/12/27 18:00:00,23.6,-0.2
2022/12/27 18:10:00,23.6,-0.1
2022/12/27 18:20:00,23.6, 0.0
2022/12/27 18:30:00,23.6, 0.1
2022/12/27 18:40:00,23.6,-0.1
2022/12/27 18:50:00,23.6,-0.6
2022/12/27 19:00:00,23.6,-0.5
2022/12/27 19:10:00,23.6,-0.9
2022/12/27 19:20:00,23.7,-0.7
2022/12/27 19:30:00,23.7,-1.2
2022/12/27 19:40:00,23.7,-1.3
2022/12/27 19:50:00,23.7,-0.8
2022/12/27 20:00:00,23.7,-0.7
2022/12/27 20:10:00,23.7,-0.4
2022/12/27 20:20:00,23.7,-0.2
2022/12/27 20:30:00,23.6,-0.4
2022/12/27 20:40:00,23.6,-1.0
2022/12/27 20:50:00,23.5,-0.8
2022/12/27 21:00:00,23.4,-1.0
2022/12/27 21:10:00,23.4,-1.3
2022/12/27 21:20:00,23.4,-1.8
2022/12/27 21:30:00,23.4,-1.7
2022/12/27 21:40:00,23.4,-1.8
2022/12/27 21:50:00,23.4,-1.8
2022/12/27 22:00:00,23.3,-1.7
2022/12/27 22:10:00,23.3,-1.7
2022/12/27 22:20:00,23.3,-1.7
2022/12/27 22:30:00,23.3,-1.5
2022/12/27 22:40:00,23.3,-1.8
2022/12/27 22:50:00,23.3,-2.0
2022/12/27 23:00:00,23.2,-2.1
2022/12/27 23:10:00,23.2,-1.8
2022/12/27 23:20:00,23.2,-2.0
2022/12/27 23:30:00,23.2,-1.8
2022/12/27 23:40:00,23.2,-1.9
2022/12/27 23:50:00,23.2,-2.2
